Date String (YYYY-MM-DD hh:mm:ss) UTC,Instrument flags,Ambient pressure (hPa),Sample flow (lpm),Bypass flow (lpm),Sample temperature (°C),Ambient temperature (°C),ASC tube jacket temperature (°C),LED temperature (°C),Box temperature (°C),Sample RH (%),Span deviation,Mass concentration (μg/m³),Mass concentration (μg/m³),Mass concentration (μg/m³)
DateTimeUTC,F1_M11,P_M11,Q1_M11,Q2_M11,T1_M11,T2_M11,T3_M11,T4_M11,T5_M11,U1_M11,ZSPAN_M11,X0_M11,X2_M11,X1_M11
2022-10-14 09:00:00,,0824.5,5.00,0.00,27.6,25.9,00.0,36.5,29.5,08.7,0000.0,0004.70,0003.40,0003.17
2022-10-14 09:01:00,,0824.5,5.00,0.00,27.6,25.9,00.0,36.5,29.5,08.7,0000.0,0004.72,0003.41,0003.18
2022-10-14 09:02:00,,0824.4,5.00,0.00,27.6,25.9,00.0,36.5,29.5,08.9,0000.0,0004.64,0003.40,0003.18
2022-10-14 09:03:00,,0824.6,5.00,0.00,27.6,25.9,00.0,36.5,29.5,09.0,0000.0,0004.57,0003.39,0003.17
2022-10-14 09:04:00,,0824.5,4.99,0.00,27.6,25.9,00.0,36.5,29.4,09.0,0000.0,0004.59,0003.39,0003.16
2022-10-14 09:05:00,,0824.5,4.99,0.00,27.6,25.8,00.0,36.5,29.4,09.0,0000.0,0004.64,0003.40,0003.17
2022-10-14 09:06:00,,0824.4,5.00,0.00,27.5,25.7,00.0,36.4,29.3,08.8,0000.0,0004.63,0003.40,0003.17
2022-10-14 09:07:00,,0824.5,5.00,0.00,27.5,25.7,00.0,36.4,29.3,08.9,0000.0,0004.72,0003.42,0003.18
2022-10-14 09:08:00,,0824.4,5.00,0.00,27.5,25.6,00.0,36.4,29.3,08.9,0000.0,0004.62,0003.41,0003.19
2022-10-14 09:09:00,,0824.5,5.00,0.00,27.4,25.6,00.0,36.4,29.2,09.0,0000.0,0004.61,0003.41,0003.21
2022-10-14 09:10:00,,0824.5,5.02,0.00,27.4,25.6,00.0,36.4,29.1,09.0,0000.0,0005.94,0003.44,0003.21
2022-10-14 09:11:00,,0824.4,5.00,0.00,27.4,25.5,00.0,36.4,29.1,09.2,0000.0,0007.44,0003.45,0003.23
2022-10-14 09:12:00,,0824.4,4.99,0.00,27.4,25.5,00.0,36.3,29.1,09.2,0000.0,0007.71,0003.48,0003.25
2022-10-14 09:13:00,,0824.4,5.00,0.00,27.3,25.5,00.0,36.3,29.1,09.3,0000.0,0008.17,0003.54,0003.28
2022-10-14 09:14:00,,0824.4,5.00,0.00,27.3,25.5,00.0,36.3,29.1,09.3,0000.0,0008.27,0003.58,0003.31
2022-10-14 09:15:00,,0824.4,5.01,0.00,27.3,25.5,00.0,36.3,29.0,09.1,0000.0,0008.25,0003.58,0003.33
2022-10-14 09:16:00,,0824.4,5.00,0.00,27.3,25.5,00.0,36.3,29.1,09.3,0000.0,0008.24,0003.58,0003.34
2022-10-14 09:17:00,,0824.3,5.00,0.00,27.3,25.6,00.0,36.3,29.1,09.5,0000.0,0008.34,0003.62,0003.36
2022-10-14 09:18:00,,0824.3,5.00,0.00,27.3,25.6,00.0,36.2,29.2,09.4,0000.0,0008.48,0003.67,0003.39
2022-10-14 09:19:00,,0824.3,5.00,0.00,27.3,25.6,00.0,36.2,29.1,09.4,0000.0,0008.52,0003.69,0003.40
2022-10-14 09:20:00,,0824.3,5.00,0.00,27.3,25.6,00.0,36.2,29.1,09.5,0000.0,0008.51,0003.71,0003.42
2022-10-14 09:21:00,,0824.3,5.00,0.00,27.3,25.7,00.0,36.2,29.1,09.7,0000.0,0008.28,0003.72,0003.44
2022-10-14 09:22:00,,0824.3,4.98,0.00,27.3,25.7,00.0,36.2,29.2,09.5,0000.0,0006.73,0003.72,0003.45
2022-10-14 09:23:00,,0824.3,5.00,0.00,27.3,25.7,00.0,36.2,29.2,09.5,0000.0,0006.68,0003.73,0003.46
2022-10-14 09:24:00,,0824.2,5.00,0.00,27.3,25.7,00.0,36.2,29.2,09.5,0000.0,0005.66,0003.72,0003.45
2022-10-14 09:25:00,,0824.2,5.00,0.00,27.3,25.7,00.0,36.2,29.1,09.5,0000.0,0005.68,0003.70,0003.45
2022-10-14 09:26:00,,0824.2,5.00,0.00,27.3,25.7,00.0,36.2,29.2,09.5,0000.0,0005.77,0003.72,0003.46
2022-10-14 09:27:00,,0824.3,5.00,0.00,27.3,25.7,00.0,36.2,29.2,09.5,0000.0,0005.90,0003.73,0003.47
2022-10-14 09:28:00,,0824.2,5.00,0.00,27.4,25.8,00.0,36.2,29.2,09.6,0000.0,0005.83,0003.72,0003.46
2022-10-14 09:29:00,,0824.3,5.00,0.00,27.4,25.8,00.0,36.2,29.2,09.5,0000.0,0005.65,0003.69,0003.46
2022-10-14 09:30:00,,0824.2,5.00,0.00,27.4,25.8,00.0,36.2,29.2,09.5,0000.0,0005.58,0003.68,0003.45
2022-10-14 09:31:00,,0824.2,5.00,0.00,27.4,25.8,00.0,36.2,29.2,09.5,0000.0,0005.68,0003.68,0003.44
2022-10-14 09:32:00,,0824.2,4.99,0.00,27.4,25.8,00.0,36.2,29.3,09.3,0000.0,0005.69,0003.67,0003.43
2022-10-14 09:33:00,,0824.2,4.99,0.00,27.4,25.8,00.0,36.2,29.2,09.4,0000.0,0005.61,0003.65,0003.42
2022-10-14 09:34:00,,0824.2,5.00,0.00,27.4,25.8,00.0,36.2,29.3,09.4,0000.0,0006.74,0003.66,0003.42
2022-10-14 09:35:00,,0824.1,5.00,0.00,27.4,25.8,00.0,36.2,29.3,09.4,0000.0,0006.94,0003.67,0003.41
2022-10-14 09:36:00,,0824.1,5.00,0.00,27.4,25.8,00.0,36.2,29.3,09.3,0000.0,0007.00,0003.70,0003.41
2022-10-14 09:37:00,,0824.1,5.00,0.00,27.4,25.8,00.0,36.2,29.2,09.1,0000.0,0007.06,0003.71,0003.40
2022-10-14 09:38:00,,0824.1,5.00,0.00,27.4,25.8,00.0,36.2,29.2,09.2,0000.0,0007.14,0003.73,0003.40
2022-10-14 09:39:00,,0824.1,4.99,0.00,27.4,25.8,00.0,36.2,29.3,09.3,0000.0,0007.18,0003.77,0003.41
2022-10-14 09:40:00,,0824.1,5.00,0.00,27.4,25.8,00.0,36.2,29.3,09.3,0000.0,0007.26,0003.79,0003.41
2022-10-14 09:41:00,,0824.1,5.00,0.00,27.4,25.8,00.0,36.2,29.3,09.3,0000.0,0007.75,0003.81,0003.42
2022-10-14 09:42:00,,0824.1,5.01,0.00,27.4,25.8,00.0,36.2,29.3,09.3,0000.0,0007.98,0003.81,0003.42
2022-10-14 09:43:00,,0824.1,5.01,0.00,27.4,25.8,00.0,36.2,29.3,09.5,0000.0,0008.01,0003.83,0003.44
2022-10-14 09:44:00,,0824.1,5.01,0.00,27.4,25.8,00.0,36.2,29.3,09.5,0000.0,0008.05,0003.87,0003.46
2022-10-14 09:45:00,,0824.1,4.99,0.00,27.4,25.8,00.0,36.2,29.3,09.1,0000.0,0007.39,0003.87,0003.46
2022-10-14 09:46:00,,0824.1,4.99,0.00,27.4,25.8,00.0,36.2,29.3,09.1,0000.0,0007.21,0003.86,0003.47
2022-10-14 09:47:00,,0824.1,5.01,0.00,27.4,25.8,00.0,36.2,29.3,09.1,0000.0,0007.07,0003.85,0003.47
2022-10-14 09:48:00,,0824.1,5.00,0.00,27.4,25.8,00.0,36.2,29.3,09.2,0000.0,0006.99,0003.83,0003.47
2022-10-14 09:49:00,,0824.1,5.01,0.00,27.4,25.9,00.0,36.2,29.3,09.1,0000.0,0006.94,0003.83,0003.48
2022-10-14 09:50:00,,0824.1,5.00,0.00,27.4,25.9,00.0,36.2,29.3,09.1,0000.0,0006.77,0003.79,0003.47
2022-10-14 09:51:00,,0824.1,5.00,0.00,27.4,25.9,00.0,36.2,29.3,09.2,0000.0,0007.28,0003.78,0003.47
2022-10-14 09:52:00,,0824.1,4.98,0.00,27.4,25.9,00.0,36.2,29.3,09.1,0000.0,0006.59,0003.76,0003.46
2022-10-14 09:53:00,,0824.1,4.99,0.00,27.4,25.9,00.0,36.2,29.3,09.0,0000.0,0006.16,0003.74,0003.46
2022-10-14 09:54:00,,0824.1,5.00,0.00,27.4,25.9,00.0,36.2,29.3,08.9,0000.0,0006.09,0003.72,0003.44
2022-10-14 09:55:00,,0824.1,5.00,0.00,27.4,25.9,00.0,36.2,29.3,08.8,0000.0,0007.30,0003.70,0003.42
2022-10-14 09:56:00,,0824.1,5.00,0.00,27.4,25.9,00.0,36.2,29.3,08.9,0000.0,0007.29,0003.67,0003.40
2022-10-14 09:57:00,,0824.0,5.00,0.00,27.4,25.9,00.0,36.2,29.4,08.7,0000.0,0007.17,0003.64,0003.39
2022-10-14 09:58:00,,0824.1,5.00,0.00,27.4,26.0,00.0,36.2,29.3,08.7,0000.0,0007.13,0003.62,0003.38
2022-10-14 09:59:00,,0824.0,5.00,0.00,27.5,25.9,00.0,36.2,29.3,08.8,0000.0,0006.94,0003.58,0003.36
